2023/09/26 00:00:00, 7.3,20.4
2023/09/26 00:10:00, 3.5,20.4
2023/09/26 00:20:00, 0.2,20.4
2023/09/26 00:30:00, 0.2,20.5
2023/09/26 00:40:00, 0.2,20.4
2023/09/26 00:50:00, 0.2,20.7
2023/09/26 01:00:00, 0.2,20.4
2023/09/26 01:10:00, 0.2,20.5
2023/09/26 01:20:00, 0.4,20.2
2023/09/26 01:30:00, 6.1,20.4
2023/09/26 01:40:00, 6.9,20.4
2023/09/26 01:50:00, 7.0,20.4
2023/09/26 02:00:00, 6.9,20.4
2023/09/26 02:10:00, 6.8,20.4
2023/09/26 02:20:00, 6.8,20.3
2023/09/26 02:30:00, 6.8,20.2
2023/09/26 02:40:00, 7.0,20.5
2023/09/26 02:50:00, 7.3,20.4
2023/09/26 03:00:00, 7.6,20.4
2023/09/26 03:10:00, 7.7,20.5
2023/09/26 03:20:00, 7.6,20.3
2023/09/26 03:30:00, 7.5,20.5
2023/09/26 03:40:00, 7.4,20.1
2023/09/26 03:50:00, 7.7,20.0
2023/09/26 04:00:00, 7.9,19.9
2023/09/26 04:10:00, 7.9,19.7
2023/09/26 04:20:00, 7.6,19.9
2023/09/26 04:30:00, 7.4,19.7
2023/09/26 04:40:00, 7.3,19.8
2023/09/26 04:50:00, 7.3,19.7
2023/09/26 05:00:00, 7.4,19.9
2023/09/26 05:10:00, 7.4,19.7
2023/09/26 05:20:00, 7.3,19.8
2023/09/26 05:30:00, 7.2,19.8
2023/09/26 05:40:00, 7.1,19.9
2023/09/26 05:50:00, 7.2,19.9
2023/09/26 06:00:00, 7.2,19.9
2023/09/26 06:10:00, 7.3,20.0
2023/09/26 06:20:00, 7.3,20.0
2023/09/26 06:30:00, 7.3,20.1
2023/09/26 06:40:00, 7.0,20.3
2023/09/26 06:50:00, 6.9,20.4
2023/09/26 07:00:00, 7.3,20.4
2023/09/26 07:10:00, 7.4,20.4
2023/09/26 07:20:00, 7.5,20.7
2023/09/26 07:30:00, 7.6,20.4
2023/09/26 07:40:00, 6.3,21.1
2023/09/26 07:50:00, 3.8,21.0
2023/09/26 08:00:00, 7.6,21.0
2023/09/26 08:10:00, 7.8,21.4
2023/09/26 08:20:00, 7.8,21.6
2023/09/26 08:30:00, 7.4,21.7
2023/09/26 08:40:00, 7.3,22.1
2023/09/26 08:50:00, 7.1,21.8
2023/09/26 09:00:00, 7.4,21.8
2023/09/26 09:10:00, 7.7,22.3
2023/09/26 09:20:00, 7.9,22.5
2023/09/26 09:30:00, 7.6,22.6
2023/09/26 09:40:00, 7.3,23.1
2023/09/26 09:50:00, 7.3,23.0
2023/09/26 10:00:00, 7.5,22.7
2023/09/26 10:10:00, 5.9,22.8
2023/09/26 10:20:00, 1.8,23.0
2023/09/26 10:30:00, 8.6,22.8
2023/09/26 10:40:00, 7.6,23.4
2023/09/26 10:50:00, 7.3,23.7
2023/09/26 11:00:00, 7.8,23.9
2023/09/26 11:10:00, 7.8,23.7
2023/09/26 11:20:00, 7.4,23.7
2023/09/26 11:30:00, 7.2,23.5
2023/09/26 11:40:00, 7.1,23.5
2023/09/26 11:50:00, 7.1,23.5
2023/09/26 12:00:00, 7.3,24.0
2023/09/26 12:10:00, 7.6,24.0
2023/09/26 12:20:00, 7.3,23.6
2023/09/26 12:30:00, 7.2,24.3
2023/09/26 12:40:00, 7.9,24.7
2023/09/26 12:50:00, 8.3,24.5
2023/09/26 13:00:00, 7.7,24.2
2023/09/26 13:10:00, 7.4,24.0
2023/09/26 13:20:00, 7.5,24.0
2023/09/26 13:30:00, 7.5,23.9
2023/09/26 13:40:00, 7.4,23.7
2023/09/26 13:50:00, 7.2,23.6
2023/09/26 14:00:00, 6.9,23.0
2023/09/26 14:10:00, 6.9,22.9
2023/09/26 14:20:00, 7.2,22.6
2023/09/26 14:30:00, 7.5,22.9
2023/09/26 14:40:00, 7.3,22.7
2023/09/26 14:50:00, 7.1,23.0
2023/09/26 15:00:00, 6.8,23.0
2023/09/26 15:10:00, 6.8,23.0
2023/09/26 15:20:00, 7.1,22.9
2023/09/26 15:30:00, 6.3,22.6
2023/09/26 15:40:00, 5.6,22.6
2023/09/26 15:50:00, 6.3,22.2
2023/09/26 16:00:00, 6.9,22.1
2023/09/26 16:10:00, 6.7,21.8
2023/09/26 16:20:00, 6.8,21.8
2023/09/26 16:30:00, 7.1,21.7
2023/09/26 16:40:00, 7.0,21.7
2023/09/26 16:50:00, 6.6,21.6
2023/09/26 17:00:00, 6.3,21.6
2023/09/26 17:10:00, 5.9,22.1
2023/09/26 17:20:00, 5.8,21.6
2023/09/26 17:30:00, 5.9,21.5
2023/09/26 17:40:00, 5.8,21.5
2023/09/26 17:50:00, 5.8,21.5
2023/09/26 18:00:00, 5.7,21.2
2023/09/26 18:10:00, 5.8,21.2
2023/09/26 18:20:00, 5.9,21.0
2023/09/26 18:30:00, 5.8,21.3
2023/09/26 18:40:00, 5.8,21.3
2023/09/26 18:50:00, 5.8,21.1
2023/09/26 19:00:00, 5.8,21.0
2023/09/26 19:10:00, 5.7,20.8
2023/09/26 19:20:00, 5.8,21.2
2023/09/26 19:30:00, 5.8,21.2
2023/09/26 19:40:00, 5.7,20.8
2023/09/26 19:50:00, 5.7,21.3
2023/09/26 20:00:00, 5.7,21.0
2023/09/26 20:10:00, 5.7,20.9
2023/09/26 20:20:00, 5.6,21.5
2023/09/26 20:30:00, 5.6,20.9
2023/09/26 20:40:00, 5.6,21.0
2023/09/26 20:50:00, 5.7,20.9
2023/09/26 21:00:00, 5.9,20.8
2023/09/26 21:10:00, 6.1,20.5
2023/09/26 21:20:00, 6.3,20.8
2023/09/26 21:30:00, 6.3,20.8
2023/09/26 21:40:00, 6.9,20.4
2023/09/26 21:50:00, 7.4,20.6
2023/09/26 22:00:00, 8.0,20.6
2023/09/26 22:10:00, 8.1,20.2
2023/09/26 22:20:00, 7.7,20.6
2023/09/26 22:30:00, 7.2,20.4
2023/09/26 22:40:00, 6.8,20.4
2023/09/26 22:50:00, 6.5,20.4
2023/09/26 23:00:00, 6.3,20.4
2023/09/26 23:10:00, 6.3,20.4
2023/09/26 23:20:00, 6.2,20.3
2023/09/26 23:30:00, 6.2,20.4
2023/09/26 23:40:00, 6.2,20.2
2023/09/26 23:50:00, 6.3,20.2
